This is the latest recevied weather packets stored in our database for station/object OE9SAU-10. If no packets are shown the sender has not sent any weather packets the latest 10 day(s).
| Time | Temp. | Humidity | Pressure | Rain* | Wind** | Luminosity | Snow |
|---|---|---|---|---|---|---|---|
| 1777014138 | 11.67° C | 44% | 1024.7 hPa | - | - | - | - |
| 1777013237 | 10.56° C | 45% | 1024.7 hPa | - | - | - | - |
| 1777012337 | 10° C | 46% | 1024.8 hPa | - | - | - | - |
| 1777011437 | 10° C | 42% | 1024.9 hPa | - | - | - | - |
| 1777010537 | 9.44° C | 41% | 1025.1 hPa | - | - | - | - |
| 1777009637 | 10° C | 40% | 1025.2 hPa | - | - | - | - |
| 1777008737 | 10° C | 40% | 1025.3 hPa | - | - | - | - |
| 1777007837 | 10° C | 39% | 1025.2 hPa | - | - | - | - |
| 1777006937 | 10° C | 40% | 1025.4 hPa | - | - | - | - |
| 1777006037 | 10° C | 39% | 1025.3 hPa | - | - | - | - |
| 1777005137 | 10.56° C | 39% | 1025.3 hPa | - | - | - | - |
| 1777004237 | 10° C | 39% | 1025.3 hPa | - | - | - | - |
| 1777003337 | 10.56° C | 39% | 1025.4 hPa | - | - | - | - |
| 1777002437 | 10.56° C | 38% | 1025.3 hPa | - | - | - | - |
| 1777001537 | 11.11° C | 38% | 1025.3 hPa | - | - | - | - |
| 1777000637 | 11.11° C | 38% | 1025.3 hPa | - | - | - | - |
| 1776999737 | 11.11° C | 37% | 1025.4 hPa | - | - | - | - |
| 1776998837 | 11.67° C | 37% | 1025.5 hPa | - | - | - | - |
| 1776997936 | 11.67° C | 37% | 1025.6 hPa | - | - | - | - |
| 1776997036 | 11.67° C | 36% | 1025.7 hPa | - | - | - | - |
| 1776996136 | 11.67° C | 37% | 1025.7 hPa | - | - | - | - |
| 1776995236 | 12.22° C | 36% | 1025.7 hPa | - | - | - | - |
| 1776994336 | 12.22° C | 36% | 1025.8 hPa | - | - | - | - |
| 1776993436 | 12.22° C | 36% | 1025.7 hPa | - | - | - | - |
| 1776992536 | 12.78° C | 36% | 1025.9 hPa | - | - | - | - |
* Rain since midnight (hover to see other rain measurements)
** Current wind speed in m/s (hover to see current wind gust speed)